Regional Weather Roundup
Issued by NWS Newport/Morehead, NC

Current Version | Previous Version | Text Only | Print | Product List | Glossary Off
Versions: 1 2 3 4 5 6 7 8 9 10 11 12 13 14 15 16 17 18 19 20 21 22 23 24 25 26 27 28 29 30 31 32 33 34 35 36 37 38 39 40 41 42 43 44 45 46 47 48 49 50
000 ASUS42 KMHX 271824 RWRMHX WEATHER ROUNDUP FOR EASTERN NORTH CAROLINA NATIONAL WEATHER SERVICE NEWPORT/MOREHEAD CITY NC 200 PM EDT WED MAY 27 2015 NOTE: "FAIR" INDICATES FEW OR NO CLOUDS BELOW 12,000 FEET WITH NO SIGNIFICANT WEATHER AND/OR OBSTRUCTIONS TO VISIBILITY NCZ015>017-031-032-045>047-102-103-271900- NORTH COAST CITY SKY/WX TMP DP RH WIND PRES REMARKS EDENTON N/A 84 71 65 S12 30.23F ELIZABETH CITY MOSUNNY 81 70 69 S13G21 30.24F KITTY HAWK CLOUDY 79 65 61 S10G17 30.26F MANTEO CLOUDY 77 67 70 S18 30.28S $$ NCZ045>047-081-094-103-104-271900- CENTRAL COAST CITY SKY/WX TMP DP RH WIND PRES REMARKS FRISCO MOSUNNY 82 64 54 S13 30.30F SWANQUARTER N/A 81 N/A N/A S20 30.24S $$ NCZ095-097-098-100-101-271900- SOUTHERN COAST CITY SKY/WX TMP DP RH WIND PRES REMARKS BEAUFORT CLOUDY 79 68 69 S16 30.28F CEDAR ISLAND N/A 79 N/A N/A SE10G20 30.33S JACKSONVILLE PTSUNNY 82 68 62 S15 30.25F PINEY ISLAND CLOUDY N/A N/A N/A S10G21 30.28S WILMINGTON MOSUNNY 83 67 58 SE12G17 30.25F $$ NCZ011>013-027>030-043-044-078>080-089-090>093-098-271900- COASTAL PLAIN CITY SKY/WX TMP DP RH WIND PRES REMARKS AHOSKIE SUNNY 83 69 61 S5 30.22F CLINTON PTSUNNY 84 72 67 S3 30.24F ELIZABETHTOWN PTSUNNY 85 68 57 S6 30.23F GOLDSBORO MOSUNNY 86 69 56 VRB7 30.19F GREENVILLE LGT RAIN 77 72 83 E3 30.24S HAVELOCK MOSUNNY 81 67 62 S13 30.27F KENANSVILLE LGT RAIN 78 71 79 CALM 30.25S KINSTON MOSUNNY 88 66 48 S6 30.23F NEW BERN CLOUDY 83 68 60 S13 30.26F RICHLANDS CLOUDY 82 68 61 SE10G18 30.24F ROCKY MOUNT MOSUNNY 88 67 49 SW14 30.21F WASHINGTON MOSUNNY 84 69 60 S7 30.23F WHITEVILLE MOSUNNY 84 69 59 S9 30.23F $$ AMZ130-135-150-152-154-156-158-170-250-252-270-ANZ085-086-088-633-658-670-271900- MARINE OBSERVATIONS STATION/POSITION TIME TEMP WIND PRES WAVE SWELL AIR SEA DIR/SP/G HT/PER HT/PER (UTC) (F) (DEG/KT/KT) (MB) (FT/S) (FT/S) CHESAPEAKE LIGHT 1800 69 170/ 28/ 29 1023.3 64 E VA BEACH 1750 67 64 170/ 14/ 14 1025.0 3/ 5 2/ 6 DUCK 1800 76 56 170/ 19/ 21 1023.5 2 E DUCK 1811 64 N/A 2/ 5 OREGON INLET 1800 77 76 160/ 12/ 17 1025.6 13E OREGON INLT 1800 71 N/A 2/ 7 HATTERAS CG 1800 77 74 160/ 11/ 14 1025.6 DIAMOND BUOY 1750 74 77 160/ 12/ 14 1026.2 3/ 7 2/ 7 CAPE LOOKOUT 1800 74 150/ 13/ 14 1025.4 BEAUFORT LAB 1800 76 75 160/ 12/ 16 1024.6 27 SE WRIGHTSVLE 1800 77 170/ 8/ 10 N/A 5 SE WRIGHTSVLE 1708 77 77 180/ 10/ 12 1025.2 225 S CAPE HAT 1750 74 75 80/ 10/ 12 1026.3 4/ 7 3/ 7 41 SE CHARLESTON 1750 77 78 100/ 8/ 10 1024.2 3/ 7 3/ 7 $$

USA.gov is the U.S. government's official web portal to all federal, state and local government web resources and services.